Weather History for KUCP - March, 2014

Change the Weather History Date:

Monday, March 17, 2014

  Actual Average Record
Temperature  
Mean Temperature 26 °F -  
Max Temperature 38 °F 47 °F 77 °F (2012)
Min Temperature 14 °F 25 °F 9 °F (1961)
Degree Days  
Heating Degree Days 39    
Moisture  
Dew Point 11 °F    
Average Humidity 54    
Maximum Humidity 71    
Minimum Humidity 38    
Precipitation  
Precipitation 0.00 in - - ()
Sea Level Pressure  
Sea Level Pressure 30.06 in    
Wind  
Wind Speed 8 mph (ENE)    
Max Wind Speed 12 mph    
Max Gust Speed -    
Visibility 10 miles    
Events      
Averages and records for this station are not official NWS values.
T = Trace of Precipitation, MM = Missing Value Source: NWS Daily Summary

Daily Weather History Graph

Daily Weather History Graph

Search for Another Location

Airport or City:

Trip Planner

Search our weather history database for the weather conditions in past years. The results will help you decide how hot, cold, wet, or windy it might be!

Date:

Astronomy

Mar. 17, 2014 Rise Set
Actual Time 7:30 AM EDT 7:30 PM EDT
Civil Twilight 7:02 AM EDT 7:57 PM EDT
Nautical Twilight 6:30 AM EDT 8:30 PM EDT
Astronomical Twilight 5:58 AM EDT 9:02 PM EDT
Moon 8:46 PM EDT (3/17) 7:44 AM EDT (3/17)
Length of Visible Light 12h 55m
Length of Day
12h 00m
Full, 99% of the Moon is Illuminated
Mar 17
Full
Mar 23
Last Quarter
Mar 30
New
Apr 7
First Quarter
Apr 15
Full

Hourly Weather History & Observations

Time (EDT) Temp. Windchill Dew Point Humidity Pressure Visibility Wind Dir Wind Speed Gust Speed Precip Events Conditions
12:56 AM 20.1 °F 9.5 °F 7.2 °F 57% 30.16 in 10.0 mi NNE 9.2 mph - N/A   Clear
1:56 AM 19.0 °F 6.8 °F 6.1 °F 57% 30.14 in 10.0 mi NNE 11.5 mph - N/A   Clear
2:56 AM 18.1 °F 8.9 °F 6.1 °F 59% 30.13 in 10.0 mi NE 6.9 mph - N/A   Clear
3:56 AM 18.1 °F 7.9 °F 6.1 °F 59% 30.10 in 10.0 mi NNE 8.1 mph - N/A   Clear
4:56 AM 17.1 °F 7.6 °F 7.2 °F 65% 30.09 in 10.0 mi NNE 6.9 mph - N/A   Clear
5:56 AM 16.2 °F 4.7 °F 6.1 °F 65% 30.09 in 10.0 mi NNE 9.2 mph - N/A   Clear
6:56 AM 14.0 °F 2.0 °F 6.1 °F 71% 30.10 in 10.0 mi NE 9.2 mph - N/A   Clear
7:56 AM 14.0 °F 2.9 °F 5.0 °F 67% 30.10 in 10.0 mi NE 8.1 mph - N/A   Clear
8:56 AM 18.1 °F 6.3 °F 6.1 °F 59% 30.09 in 10.0 mi ENE 10.4 mph - N/A   Clear
9:56 AM 23.0 °F 13.1 °F 6.1 °F 48% 30.09 in 10.0 mi East 9.2 mph - N/A   Partly Cloudy
10:56 AM 26.1 °F 17.6 °F 6.1 °F 43% 30.09 in 10.0 mi East 8.1 mph - N/A   Clear
11:56 AM 30.0 °F 21.7 °F 7.2 °F 38% 30.07 in 10.0 mi ESE 9.2 mph - N/A   Clear
12:56 PM 32.0 °F 23.6 °F 10.0 °F 40% 30.05 in 10.0 mi East 10.4 mph - N/A   Clear
1:56 PM 35.6 °F 29.2 °F 12.2 °F 38% 29.93 in 10.0 mi East 8.1 mph - N/A   Clear
2:56 PM 36.9 °F 31.4 °F 14.0 °F 39% 29.99 in 10.0 mi SSE 6.9 mph - N/A   Scattered Clouds
3:56 PM 38.8 °F 34.6 °F 16.2 °F 40% 29.97 in 10.0 mi Variable 5.8 mph - N/A   Mostly Cloudy
4:56 PM 37.9 °F 34.4 °F 16.2 °F 41% 29.98 in 10.0 mi Variable 4.6 mph - N/A   Overcast
5:56 PM 34.9 °F 28.3 °F 17.1 °F 48% 30.00 in 10.0 mi SE 8.1 mph - N/A   Overcast
6:56 PM 34.0 °F 28.0 °F 18.1 °F 52% 30.01 in 10.0 mi ESE 6.9 mph - N/A   Overcast
7:56 PM 32.9 °F - 18.1 °F 55% 30.01 in 10.0 mi Calm Calm - N/A   Overcast
8:56 PM 31.1 °F 27.7 °F 18.1 °F 59% 30.02 in 10.0 mi East 3.5 mph - N/A   Partly Cloudy
9:56 PM 30.0 °F - 18.1 °F 61% 30.03 in 10.0 mi Calm Calm - N/A   Clear
10:56 PM 28.0 °F - 18.1 °F 66% 30.04 in 10.0 mi Calm Calm - N/A   Partly Cloudy
11:56 PM 28.0 °F - 18.1 °F 66% 30.04 in 10.0 mi Calm Calm - N/A   Clear